TimeMST,TemperatureF,Dew PointF,Humidity,Sea Level PressureIn,VisibilityMPH,Wind Direction,Wind SpeedMPH,Gust SpeedMPH,PrecipitationIn,Events,Conditions,WindDirDegrees,DateUTC
12:53 AM,25.0,17.1,72,30.06,5.0,WSW,21.9,35.7,0.00,Snow,Light Snow,250,2012-12-10 07:53:00
1:53 AM,25.0,17.1,72,30.02,8.0,SW,28.8,34.5,0.00,,Overcast,230,2012-12-10 08:53:00
2:11 AM,24.8,17.6,74,29.86,2.5,SW,35.7,49.5,0.00,,Overcast,220,2012-12-10 09:11:00
2:26 AM,26.6,17.6,69,29.87,4.0,SW,32.2,48.3,0.00,Snow,Light Snow,230,2012-12-10 09:26:00
2:53 AM,27.0,16.0,63,30.00,5.0,WSW,26.5,44.9,0.00,,Overcast,250,2012-12-10 09:53:00
3:53 AM,28.0,16.0,61,29.99,10.0,West,27.6,38.0,0.00,,Overcast,260,2012-12-10 10:53:00
4:53 AM,30.0,16.0,56,29.98,10.0,WSW,27.6,33.4,N/A,,Overcast,240,2012-12-10 11:53:00
5:53 AM,30.0,16.0,56,29.95,10.0,WSW,27.6,34.5,N/A,,Overcast,240,2012-12-10 12:53:00
6:53 AM,28.0,17.1,63,29.95,7.0,WSW,26.5,42.6,N/A,,Mostly Cloudy,250,2012-12-10 13:53:00
7:29 AM,28.4,19.4,69,29.83,3.0,SW,29.9,35.7,0.00,Snow,Light Snow,230,2012-12-10 14:29:00
7:34 AM,28.4,19.4,69,29.83,2.5,WSW,31.1,40.3,0.00,Snow,Light Snow,240,2012-12-10 14:34:00
7:38 AM,28.4,19.4,69,29.84,1.8,WSW,31.1,40.3,0.00,Snow,Light Snow,240,2012-12-10 14:38:00
7:50 AM,28.4,19.4,69,29.84,2.5,WSW,25.3,34.5,0.00,Snow,Light Snow,240,2012-12-10 14:50:00
7:53 AM,27.0,19.9,75,29.97,2.0,WSW,26.5,34.5,0.00,Snow,Light Snow,240,2012-12-10 14:53:00
8:00 AM,26.6,19.4,74,29.85,1.5,WSW,26.5,33.4,0.00,Snow,Light Snow,240,2012-12-10 15:00:00
8:12 AM,28.4,21.2,74,29.85,1.0,SW,24.2,35.7,0.00,Snow,Light Snow,230,2012-12-10 15:12:00
8:19 AM,28.4,21.2,74,29.85,1.2,WSW,23.0,-,0.00,Snow,Light Snow,240,2012-12-10 15:19:00
8:27 AM,28.4,21.2,74,29.86,3.0,WSW,25.3,31.1,0.00,Snow,Light Snow,240,2012-12-10 15:27:00
8:53 AM,28.9,21.9,75,29.97,3.0,WSW,25.3,34.5,0.00,Snow,Light Snow,240,2012-12-10 15:53:00
8:59 AM,28.4,21.2,74,29.86,2.0,WSW,27.6,33.4,0.00,Snow,Light Snow,240,2012-12-10 15:59:00
9:11 AM,28.4,23.0,80,29.86,1.8,WSW,23.0,29.9,0.00,Snow,Light Snow,240,2012-12-10 16:11:00
9:20 AM,28.4,23.0,80,29.87,2.5,WSW,19.6,-,0.00,Snow,Light Snow,250,2012-12-10 16:20:00
9:29 AM,28.4,23.0,80,29.88,4.0,WSW,15.0,-,0.00,Snow,Light Snow,240,2012-12-10 16:29:00
9:53 AM,30.0,21.0,69,30.01,10.0,West,18.4,-,0.00,,Overcast,260,2012-12-10 16:53:00
10:53 AM,30.0,19.9,66,30.03,10.0,West,19.6,-,N/A,,Overcast,260,2012-12-10 17:53:00
11:53 AM,30.9,19.0,61,30.04,10.0,West,19.6,-,N/A,,Overcast,280,2012-12-10 18:53:00
12:53 PM,30.9,18.0,59,30.05,10.0,West,15.0,21.9,N/A,,Overcast,280,2012-12-10 19:53:00
1:53 PM,32.0,18.0,56,30.03,10.0,West,11.5,-,N/A,,Overcast,260,2012-12-10 20:53:00
2:53 PM,30.0,19.0,64,30.02,10.0,West,12.7,-,N/A,,Overcast,280,2012-12-10 21:53:00
3:53 PM,28.9,19.9,69,30.02,10.0,NW,9.2,-,N/A,,Overcast,320,2012-12-10 22:53:00
4:53 PM,28.9,19.0,67,30.02,10.0,WSW,16.1,25.3,N/A,,Overcast,240,2012-12-10 23:53:00
5:53 PM,28.9,19.0,67,30.02,10.0,West,9.2,-,N/A,,Overcast,270,2012-12-11 00:53:00
6:53 PM,28.0,21.0,75,30.03,5.0,SW,20.7,-,0.00,Snow,Light Snow,230,2012-12-11 01:53:00
7:28 PM,28.4,21.2,74,29.93,3.0,WSW,15.0,-,0.00,Snow,Light Snow,250,2012-12-11 02:28:00
7:53 PM,28.9,19.0,67,30.04,10.0,WSW,17.3,-,0.00,,Overcast,240,2012-12-11 02:53:00
8:53 PM,28.9,19.9,69,30.03,10.0,WSW,17.3,-,N/A,,Overcast,250,2012-12-11 03:53:00
9:29 PM,28.4,21.2,74,29.92,2.5,WSW,16.1,28.8,0.00,Snow,Light Snow,250,2012-12-11 04:29:00
9:37 PM,28.4,21.2,74,29.92,8.0,WSW,11.5,-,0.00,Snow,Light Snow,250,2012-12-11 04:37:00
9:53 PM,28.9,19.9,69,30.01,9.0,WSW,15.0,-,0.00,,Overcast,240,2012-12-11 04:53:00
10:53 PM,30.9,18.0,59,29.99,10.0,WSW,18.4,-,N/A,,Overcast,240,2012-12-11 05:53:00
11:53 PM,28.9,21.9,75,29.99,8.0,West,17.3,-,0.00,Snow,Light Snow,260,2012-12-11 06:53:00